Flag for United Kingdom Weather past 2 weeks in Bradford, England, United Kingdom

45 °F


Feels Like: 45 °F
Forecast: 41 / 55 °F
Wind: 1 mph from Northeast

Location: Leeds And Bradford

Current Time: Oct 9, 2015 at 4:59:50 AM

Latest Report: Oct 9, 2015 at 4:20 AM

Visibility: 10 mi

Pressure: 30.18 "Hg

Humidity: 100%

Dew point: 45 °F

Location of BradfordLocation

Historic Weather in Bradford — Graph


Bradford temperature yesterday

Maximum temperature yesterday: 57 °F (at 2:50 PM)
Minimum temperature yesterday: 41 °F (at 4:20 AM)
Average temperature yesterday: 49 °F

Past Weeks' High & Low Weather Summary

High63 °F (Oct 2, 2:50 PM)100% (Sep 24, 3:50 AM)30.69 "Hg (Sep 24, 3:50 AM)
Low37 °F (Oct 2, 5:50 AM)48% (Sep 30, 4:20 PM)29.42 "Hg (Oct 6, 4:50 AM)
Average51 °F90%30.16 "Hg
* Reported Sep 24 3:20 AM — Oct 9 3:20 AM, Bradford, Weather by CustomWeather, © 2015

Note: Actual official high and low records may vary slightly from our data, if they occured in-between our weather recording intervals... More about our weather records


Bradford weather history for previous 24 hours

Time TempWeatherWind HumidityBarometerVisibility
3:20 AM
Fri, Oct 9
45 °FClear.No wind100%30.18 "Hg10 mi
2:50 AM45 °FClear.No wind100%30.18 "Hg10 mi
2:20 AM46 °FPassing clouds.2 mph87%30.18 "HgN/A
1:50 AM46 °FPassing clouds.1 mph93%30.18 "HgN/A
1:20 AM46 °FPassing clouds.2 mph93%30.18 "HgN/A
12:50 AM46 °FPassing clouds.3 mph93%30.18 "HgN/A
12:20 AM46 °FPassing clouds.5 mph100%30.18 "HgN/A
11:50 PM
Thu, Oct 8
46 °FPassing clouds.5 mph100%30.18 "HgN/A
11:20 PM46 °FPassing clouds.3 mph100%30.18 "HgN/A
10:20 PM46 °FPassing clouds.2 mph87%30.18 "HgN/A
9:50 PM48 °FPassing clouds.3 mph87%30.18 "HgN/A
9:20 PM48 °FPassing clouds.2 mph87%30.18 "HgN/A
8:50 PM48 °FPassing clouds.2 mph87%30.18 "HgN/A
8:20 PM48 °FClear.3 mph87%30.18 "Hg10 mi
7:50 PM48 °FClear.3 mph87%30.15 "Hg10 mi
7:20 PM50 °FPassing clouds.3 mph82%30.15 "HgN/A
6:50 PM52 °FPassing clouds.5 mph77%30.15 "HgN/A
6:20 PM52 °FPassing clouds.5 mph82%30.15 "HgN/A
5:50 PM54 °FPassing clouds.5 mph77%30.15 "HgN/A
5:20 PM55 °FPassing clouds.3 mph72%30.15 "HgN/A
4:50 PM57 °FPassing clouds.5 mph72%30.12 "HgN/A
4:20 PM57 °FPassing clouds.7 mph67%30.12 "HgN/A
3:50 PM55 °FPassing clouds.10 mph72%30.12 "HgN/A
3:20 PM55 °FScattered clouds.9 mph72%30.12 "HgN/A
2:50 PM57 °FScattered clouds.9 mph72%30.12 "HgN/A
2:20 PM55 °FScattered clouds.5 mph77%30.12 "HgN/A
1:50 PM54 °FScattered clouds.5 mph82%30.12 "HgN/A
1:20 PM54 °FScattered clouds.2 mph82%30.12 "HgN/A
12:50 PM54 °FScattered clouds.3 mph82%30.12 "HgN/A
12:20 PM54 °FScattered clouds.2 mph82%30.12 "HgN/A
11:50 AM55 °FScattered clouds.3 mph77%30.12 "HgN/A
11:20 AM54 °FScattered clouds.2 mph82%30.12 "HgN/A
10:50 AM54 °FPassing clouds.2 mph82%30.12 "HgN/A
10:20 AM52 °FPassing clouds.1 mph82%30.09 "HgN/A
9:50 AM50 °FSunny.2 mph88%30.09 "Hg10 mi
9:20 AM48 °FSunny.1 mph87%30.09 "Hg10 mi
8:50 AM46 °FSunny.1 mph93%30.07 "Hg10 mi
8:20 AM43 °FSunny.2 mph100%30.07 "Hg10 mi
7:50 AM41 °FClear.5 mph100%30.07 "Hg10 mi
7:20 AM41 °FClear.6 mph100%30.04 "Hg10 mi
6:50 AM41 °FClear.8 mph100%30.04 "Hg10 mi
6:20 AM41 °FClear.8 mph100%30.04 "Hg10 mi
5:50 AM41 °FClear.9 mph100%30.04 "Hg10 mi
4:20 AM41 °FClear.7 mph93%30.01 "Hg10 mi
Weather by CustomWeather, © 2015

See weather overviewHow to use our weather pages